| time (UTC) | temp F | wind direction | speed MPH | gust MPH | rain 1hr in | rain 24hr in | rain mn in | humidity % | barometer mb |
| 20260506233044 | 62 | 36 | 4.0 | 6.0 | 0.00 | 0.00 | 0.00 | 82 | 1011.3 |
| 20260506231544 | 62 | 38 | 4.0 | 6.0 | 0.00 | 0.00 | 0.00 | 81 | 1011.2 |
| 20260506230037 | 62 | 46 | 3.0 | 5.0 | 0.00 | 0.00 | 0.00 | 82 | 1011.4 |
| 20260506224535 | 62 | 44 | 3.0 | 6.0 | 0.00 | 0.00 | 0.00 | 82 | 1011.3 |
| 20260506223058 | 62 | 45 | 4.0 | 6.0 | 0.00 | 0.00 | 0.00 | 81 | 1011.4 |
| 20260506221539 | 63 | 40 | 2.0 | 4.0 | 0.00 | 0.00 | 0.00 | 81 | 1011.3 |
| 20260506220038 | 63 | 84 | 3.0 | 6.0 | 0.00 | 0.00 | 0.00 | 81 | 1011.4 |
| 20260506214540 | 63 | 88 | 4.0 | 6.0 | 0.00 | 0.00 | 0.00 | 81 | 1011.5 |
| 20260506213038 | 64 | 100 | 3.0 | 4.0 | 0.00 | 0.00 | 0.00 | 81 | 1011.6 |
| 20260506211545 | 64 | 96 | 3.0 | 6.0 | 0.00 | 0.00 | 0.00 | 81 | 1011.8 |
| 20260506210042 | 64 | 89 | 3.0 | 7.0 | 0.00 | 0.00 | 0.00 | 81 | 1011.7 |
| 20260506204538 | 64 | 105 | 5.0 | 7.0 | 0.00 | 0.00 | 0.00 | 81 | 1011.5 |
| 20260506203043 | 64 | 98 | 4.0 | 9.0 | 0.00 | 0.00 | 0.00 | 81 | 1011.5 |
| 20260506201537 | 64 | 88 | 5.0 | 9.0 | 0.00 | 0.00 | 0.00 | 80 | 1011.2 |
| 20260506200108 | 64 | 90 | 5.0 | 9.0 | 0.00 | 0.00 | 0.00 | 80 | 1011.2 |
| 20260506194542 | 64 | 96 | 5.0 | 11.0 | 0.00 | 0.00 | 0.00 | 80 | 1011.0 |
| 20260506193040 | 64 | 107 | 6.0 | 10.0 | 0.00 | 0.00 | 0.00 | 80 | 1010.9 |
| 20260506191538 | 64 | 105 | 8.0 | 11.0 | 0.00 | 0.00 | 0.00 | 79 | 1010.8 |
| 20260506190038 | 65 | 132 | 6.0 | 13.0 | 0.00 | 0.00 | 0.00 | 79 | 1010.4 |
| 20260506184535 | 65 | 105 | 8.0 | 12.0 | 0.00 | 0.00 | 0.00 | 78 | 1010.4 |
| 20260506183041 | 65 | 101 | 10.0 | 13.0 | 0.00 | 0.00 | 0.00 | 78 | 1010.3 |
| 20260506181542 | 65 | 109 | 6.0 | 17.0 | 0.00 | 0.00 | 0.00 | 77 | 1010.1 |
| 20260506180048 | 65 | 119 | 12.0 | 17.0 | 0.00 | 0.00 | 0.00 | 77 | 1010.1 |
| 20260506174538 | 66 | 124 | 8.0 | 16.0 | 0.00 | 0.00 | 0.00 | 76 | 1010.2 |
| 20260506173037 | 66 | 104 | 13.0 | 18.0 | 0.00 | 0.00 | 0.00 | 75 | 1010.3 |
| 20260506171547 | 66 | 173 | 10.0 | 17.0 | 0.00 | 0.00 | 0.00 | 74 | 1010.2 |
| 20260506170042 | 66 | 110 | 12.0 | 21.0 | 0.00 | 0.00 | 0.00 | 73 | 1010.1 |
| 20260506164539 | 67 | 108 | 12.0 | 21.0 | 0.00 | 0.00 | 0.00 | 73 | 1009.8 |
| 20260506163046 | 67 | 109 | 14.0 | 20.0 | 0.00 | 0.00 | 0.00 | 73 | 1009.7 |
| 20260506161549 | 67 | 106 | 13.0 | 21.0 | 0.00 | 0.00 | 0.00 | 72 | 1009.8 |
| 20260506160037 | 67 | 144 | 13.0 | 25.0 | 0.00 | 0.00 | 0.00 | 71 | 1009.9 |
| 20260506154537 | 67 | 111 | 15.0 | 24.0 | 0.00 | 0.00 | 0.00 | 70 | 1009.8 |
| 20260506153043 | 68 | 115 | 17.0 | 24.0 | 0.00 | 0.00 | 0.00 | 71 | 1009.8 |
| 20260506151540 | 68 | 130 | 14.0 | 24.0 | 0.00 | 0.00 | 0.00 | 71 | 1009.8 |
| 20260506150038 | 68 | 135 | 15.0 | 23.0 | 0.00 | 0.00 | 0.00 | 70 | 1009.8 |
| 20260506144538 | 68 | 107 | 17.0 | 26.0 | 0.00 | 0.00 | 0.00 | 69 | 1010.1 |
| 20260506143042 | 68 | 104 | 16.0 | 26.0 | 0.00 | 0.00 | 0.00 | 70 | 1010.2 |
| 20260506141539 | 68 | 109 | 17.0 | 24.0 | 0.00 | 0.00 | 0.00 | 70 | 1010.2 |
| 20260506140045 | 68 | 119 | 19.0 | 27.0 | 0.00 | 0.00 | 0.00 | 71 | 1010.5 |
| 20260506134608 | 68 | 98 | 17.0 | 27.0 | 0.00 | 0.00 | 0.00 | 71 | 1010.3 |
| 20260506133036 | 68 | 114 | 17.0 | 30.0 | 0.00 | 0.00 | 0.00 | 72 | 1010.4 |
| 20260506131543 | 68 | 135 | 17.0 | 28.0 | 0.00 | 0.00 | 0.00 | 71 | 1010.5 |
| 20260506130041 | 69 | 150 | 16.0 | 25.0 | 0.00 | 0.00 | 0.00 | 69 | 1010.7 |
| 20260506124540 | 69 | 103 | 15.0 | 25.0 | 0.00 | 0.00 | 0.00 | 69 | 1010.6 |
| 20260506123044 | 69 | 148 | 17.0 | 25.0 | 0.00 | 0.00 | 0.00 | 69 | 1010.7 |
| 20260506121539 | 69 | 185 | 12.0 | 23.0 | 0.00 | 0.00 | 0.00 | 70 | 1010.9 |
| 20260506120043 | 69 | 94 | 15.0 | 23.0 | 0.00 | 0.00 | 0.00 | 69 | 1011.1 |
| 20260506114547 | 69 | 93 | 15.0 | 25.0 | 0.00 | 0.00 | 0.00 | 69 | 1011.0 |
| 20260506113042 | 69 | 146 | 17.0 | 25.0 | 0.00 | 0.00 | 0.00 | 70 | 1011.1 |
| 20260506111539 | 69 | 95 | 15.0 | 23.0 | 0.00 | 0.00 | 0.00 | 69 | 1011.1 |
| 20260506110038 | 69 | 103 | 17.0 | 23.0 | 0.00 | 0.00 | 0.00 | 70 | 1011.2 |
| 20260506104536 | 69 | 85 | 15.0 | 21.0 | 0.00 | 0.00 | 0.00 | 69 | 1011.4 |
| 20260506103036 | 69 | 101 | 15.0 | 21.0 | 0.00 | 0.00 | 0.00 | 68 | 1011.4 |
| 20260506101541 | 69 | 132 | 13.0 | 22.0 | 0.00 | 0.00 | 0.00 | 68 | 1011.4 |
| 20260506100039 | 69 | 121 | 15.0 | 21.0 | 0.00 | 0.00 | 0.00 | 68 | 1011.3 |
| 20260506094539 | 69 | 112 | 14.0 | 20.0 | 0.00 | 0.00 | 0.00 | 68 | 1011.2 |
| 20260506093037 | 69 | 110 | 13.0 | 20.0 | 0.00 | 0.00 | 0.00 | 68 | 1011.2 |
| 20260506091537 | 69 | 87 | 9.0 | 21.0 | 0.00 | 0.00 | 0.00 | 68 | 1010.9 |
| 20260506090042 | 68 | 90 | 10.0 | 18.0 | 0.00 | 0.00 | 0.00 | 67 | 1010.8 |
| 20260506084541 | 68 | 90 | 13.0 | 18.0 | 0.00 | 0.00 | 0.00 | 68 | 1010.9 |
| 20260506083042 | 67 | 81 | 10.0 | 14.0 | 0.00 | 0.00 | 0.00 | 69 | 1010.9 |
| 20260506081546 | 67 | 57 | 9.0 | 14.0 | 0.00 | 0.00 | 0.00 | 71 | 1010.8 |
| 20260506073041 | 66 | 34 | 3.0 | 8.0 | 0.00 | 0.00 | 0.00 | 74 | 1010.8 |
| 20260506071543 | 64 | 36 | 1.0 | 5.0 | 0.00 | 0.00 | 0.00 | 75 | 1010.7 |
| 20260506061540 | 58 | 0 | 1.0 | 4.0 | 0.00 | 0.00 | 0.00 | 82 | 1010.8 |
| 20260506044538 | 56 | 12 | 2.0 | 4.0 | 0.00 | 0.00 | 0.00 | 85 | 1009.9 |
| 20260506043040 | 56 | 60 | 2.0 | 5.0 | 0.00 | 0.00 | 0.00 | 85 | 1009.9 |
| 20260506041540 | 57 | 41 | 1.0 | 3.0 | 0.00 | 0.00 | 0.00 | 85 | 1009.7 |
| 20260506040039 | 57 | 62 | 1.0 | 4.0 | 0.00 | 0.00 | 0.00 | 86 | 1009.7 |
| 20260506034537 | 57 | 103 | 1.0 | 3.0 | 0.00 | 0.00 | 0.00 | 85 | 1009.8 |
| 20260506033036 | 57 | 105 | 0.0 | 2.0 | 0.00 | 0.00 | 0.00 | 85 | 1009.8 |
| 20260506031542 | 57 | 0 | 0.0 | 2.0 | 0.00 | 0.00 | 0.00 | 84 | 1009.8 |
| 20260506030040 | 58 | 0 | 0.0 | 2.0 | 0.00 | 0.00 | 0.00 | 85 | 1009.7 |
| 20260506024548 | 58 | 103 | 2.0 | 4.0 | 0.00 | 0.00 | 0.00 | 84 | 1009.6 |
| 20260506023045 | 59 | 0 | 1.0 | 2.0 | 0.00 | 0.00 | 0.00 | 84 | 1009.5 |
| 20260506021537 | 58 | 163 | 2.0 | 5.0 | 0.00 | 0.00 | 0.00 | 83 | 1009.7 |
| 20260506020048 | 60 | 264 | 1.0 | 4.0 | 0.00 | 0.00 | 0.00 | 83 | 1009.6 |
| 20260506014541 | 60 | 0 | 0.0 | 3.0 | 0.00 | 0.00 | 0.00 | 83 | 1009.7 |
| 20260506013039 | 61 | 255 | 0.0 | 3.0 | 0.00 | 0.00 | 0.00 | 83 | 1009.8 |
| 20260506011610 | 61 | 0 | 0.0 | 2.0 | 0.00 | 0.00 | 0.00 | 83 | 1009.7 |
| 20260506010038 | 61 | 250 | 1.0 | 3.0 | 0.00 | 0.00 | 0.00 | 83 | 1009.8 |
| 20260506004558 | 61 | 248 | 1.0 | 3.0 | 0.00 | 0.00 | 0.00 | 83 | 1009.8 |
| 20260506003043 | 61 | 248 | 1.0 | 3.0 | 0.00 | 0.00 | 0.00 | 83 | 1009.8 |
| 20260506001545 | 61 | 0 | 0.0 | 4.0 | 0.00 | 0.00 | 0.00 | 82 | 1010.0 |
| 20260506000106 | 61 | 235 | 3.0 | 5.0 | 0.00 | 0.00 | 0.00 | 81 | 1009.9 |
| 20260505234545 | 62 | 38 | 3.0 | 5.0 | 0.00 | 0.00 | 0.00 | 82 | 1010.0 |